Weather Roundup
Issued by NWS

Home | Current Version | Previous Version | Graphics & Text | Print | Product List | Glossary Off
Versions: 1 2 3 4 5 6 7 8 9 10 11 12 13 14 15 16 17 18 19 20 21 22 23 24 25 26 27 28 29 30 31 32 33 34 35 36 37 38 39 40 41 42 43 44 45 46 47 48 49 50

000
NZUS93 KARX 291059
HRRWXR

CURRENT HOURLY OBSERVATIONS ACROSS
MUCH OF THE UPPER MISSISSIPPI VALLEY
NATIONAL WEATHER SERVICE LA CROSSE WI
500 AM CST THU JAN 29 2015


...SOUTHEAST MINNESOTA...


CITY           SKY/WX    TMP DP  RH WIND       PRES   REMARKS
ROCHESTER      FRZ RAIN  31  29  92 NW22      29.91R FOG     WCI  18
ROCHESTER/MAYO CLOUDY    32  31  97 NW14G23   29.92R WCI  22
WINONA         CLOUDY    34  32  93 NW13      29.90R WCI  25
AUSTIN         CLOUDY    34  30  86 NW18G25   29.93R WCI  23
ALBERT LEA     CLOUDY    34  34 100 NW14G23   29.96R FOG     WCI  24
DODGE CENTER   CLOUDY    34  32  93 NW20      29.92R FOG     WCI  22
PRESTON        CLOUDY    30  29  94 N14G23    29.89R FOG     WCI  20
OWATONNA       CLOUDY    34  30  86 NW17G24   29.96R FOG     WCI  23
FARIBAULT      CLOUDY    34  32  93 NW10G18   29.97R WCI  26
$$

...ELSEWHERE IN MINNESOTA...


CITY           SKY/WX    TMP DP  RH WIND       PRES   REMARKS
MINNEAPOLIS    CLOUDY    34  29  82 NW16      29.96R WCI  24
INTNL FALLS    CLOUDY    21  18  88 NW20G26   30.03R WCI   6
DULUTH         CLOUDY    29  23  78 NW18G30   29.89R WCI  16
RED WING       CLOUDY    34  30  86 NW9       29.93R FOG     WCI  26
REDWOOD FALLS  CLOUDY    31  26  82 NW21G29   30.10R WCI  18
MANKATO        CLOUDY   N/A N/A N/A NW26      30.00R
WORTHINGTON    CLOUDY    32  25  74 N26G35    30.11R WCI  18
FAIRMONT       CLOUDY    32  27  80 NW30G39   30.02R WCI  18
$$

...SOUTHWEST WISCONSIN...


CITY           SKY/WX    TMP DP  RH WIND       PRES   REMARKS
LA CROSSE      CLOUDY    33  27  78 NW14      29.88R WCI  23
PRAIRIE DU CHI CLOUDY    32  29  89 NW12G17   29.84R WCI  23
BOSCOBEL       CLOUDY    34  28  79 NW13G20   29.84R WCI  25
LONE ROCK      NOT AVBL
PLATTEVILLE    CLOUDY    32  31  96 NW15      29.78R WCI  22
FORT MC COY    CLOUDY    30  28  95 NW12      29.85R FOG     WCI  20
CAMP DOUGLAS   CLOUDY    28  28 100 NW10      29.81R FOG     WCI  19
VIROQUA        CLOUDY    30  30 100 NW14      29.81R WCI  19
WIS DELLS      NOT AVBL
$$

...ELSEWHERE IN WISCONSIN...


CITY           SKY/WX    TMP DP  RH WIND       PRES   REMARKS
MILWAUKEE      CLOUDY    33  26  75 CALM      29.72F
MADISON        CLOUDY    31  26  82 N6        29.76R WCI  25
GREEN BAY      CLOUDY    30  25  81 NW8       29.76F HAZE    WCI  22
EAU CLAIRE     CLOUDY    31  27  85 NW10      29.88R WCI  22
BLACK RVR FLS  CLOUDY    30  29  96 NW9       29.85R FOG     WCI  22
MEDFORD        CLOUDY    26  25  96 NW10      29.79R FOG     WCI  15
WAUSAU         CLOUDY    26  25  96 NW8       29.77R FOG     WCI  18
WIS RAPIDS     CLOUDY    27  24  89 NW10      29.81R FOG     WCI  17
MARSHFIELD     CLOUDY    28  25  88 NW16      29.81R FOG     WCI  16
RICE LAKE      CLOUDY    31  29  93 NW10      29.89R FOG     WCI  22
$$

...NORTHEAST IOWA...


CITY           SKY/WX    TMP DP  RH WIND       PRES   REMARKS
DECORAH        CLOUDY    32  30  93 NW21G28   29.86R WCI  20
MASON CITY     CLOUDY    33  31  92 NW26      29.97R WCI  20
CHARLES CITY   CLOUDY    32  32 100 NW18G26   29.91R FOG     WCI  20
OELWEIN        NOT AVBL
$$

...ELSEWHERE IN IOWA...


CITY           SKY/WX    TMP DP  RH WIND       PRES   REMARKS
DES MOINES     DRIZZLE   36  32  85 N21G30    30.03R WCI  25
IOWA CITY      CLOUDY    35  31  85 NW17G25   29.89R WCI  25
FORT DODGE     CLOUDY    34  28  80 NW13G20   30.04R WCI  25
$$

...NORTHERN ILLINOIS...


CITY           SKY/WX    TMP DP  RH WIND       PRES   REMARKS
CHICAGO-OHARE  PTCLDY    32  26  78 S5        29.68F WCI  27
CHICAGO-MIDWAY PTCLDY    37  28  70 S6        29.69F WCI  32
MOLINE         CLOUDY    34  30  85 NW17      29.79R WCI  23
ROCKFORD       CLOUDY    33  28  81 N7        29.74R WCI  27
PEORIA         CLOUDY    41  34  76 NW15G26   29.72R
$$

NOTE: "FAIR" INDICATES FEW OR NO CLOUDS BELOW 12,000 FEET WITH NO
SIGNIFICANT WEATHER AND/OR OBSTRUCTIONS TO VISIBILITY. WIND
SPEEDS ARE IN MILES-PER-HOUR.



USA.gov is the U.S. government's official web portal to all federal, state and local government web resources and services.